Flag for Germany Weather past 2 weeks in Lahr, Baden-Württemberg, Germany

Now
88 °F

Passing clouds.


Feels Like: 89 °F
Forecast: 67 / 85 °F
Wind: 7 mph from Northwest

Location: Lahr

Current Time: Jul 5, 2015 at 11:17:42 PM

Latest Report: Jul 5, 2015 at 10:00 PM


Visibility: 16 mi

Pressure: 29.94 "Hg

Humidity: 44%

Dew point: 63 °F

Location of LahrLocation

Historic Weather in Lahr — Graph

°F

Lahr temperature yesterday

Maximum temperature yesterday: 100 °F (at 5:00 PM)
Minimum temperature yesterday: 71 °F (at 7:00 AM)
Average temperature yesterday: 85 °F

Past Weeks' High & Low Weather Summary

 TemperatureHumidityPressure
High100 °F (Jul 5, 5:00 PM)99% (Jun 24, 5:00 AM)30.22 "Hg (Jun 24, 5:00 AM)
Low47 °F (Jun 24, 6:00 AM)24% (Jul 4, 5:00 PM)29.75 "Hg (Jun 22, 8:00 PM)
Average71 °F64%30.09 "Hg
* Reported Jun 20 10:00 PM — Jul 5 10:00 PM, Lahr, Weather by CustomWeather, © 2015

Note: Actual official high and low records may vary slightly from our data, if they occured in-between our weather recording intervals... More about our weather records

Advertising

Lahr weather history for previous 24 hours

 ConditionsComfort  
Time TempWeatherWind HumidityBarometerVisibility
10:00 PM
Sun, Jul 5
88 °FPassing clouds.7 mph44%29.94 "Hg16 mi
9:00 PM91 °FScattered clouds.7 mph36%29.88 "Hg34 mi
8:00 PM94 °FScattered clouds.3 mph35%29.85 "Hg34 mi
7:00 PM97 °FPassing clouds.3 mph26%29.84 "Hg34 mi
6:00 PM99 °FPassing clouds.5 mph24%29.85 "Hg31 mi
5:00 PM100 °FPassing clouds.3 mph26%29.88 "Hg25 mi
4:00 PM98 °FPassing clouds.5 mph32%29.90 "Hg25 mi
3:00 PM97 °FPassing clouds.6 mph32%29.92 "Hg22 mi
2:00 PM95 °FPassing clouds.6 mph33%29.95 "Hg19 mi
1:00 PM93 °FPassing clouds.3 mph37%29.97 "Hg22 mi
12:00 PM90 °FPassing clouds.2 mph41%29.97 "Hg19 mi
11:00 AM88 °FPassing clouds.2 mph47%29.99 "Hg18 mi
10:00 AM84 °FPassing clouds.2 mph53%30.01 "Hg11 mi
9:00 AM81 °FPassing clouds.1 mph54%30.03 "Hg11 mi
8:00 AM77 °FPassing clouds.1 mph65%30.04 "Hg11 mi
7:00 AM71 °FPassing clouds.1 mph82%30.05 "Hg11 mi
5:00 AM70 °FOvercast.1 mph85%30.04 "Hg11 mi
4:00 AM71 °FClear.2 mph82%30.04 "Hg11 mi
3:00 AM70 °FClear.1 mph81%30.05 "Hg11 mi
2:00 AM72 °FPassing clouds.1 mph81%30.06 "Hg11 mi
1:00 AM76 °FPassing clouds.2 mph72%30.06 "Hg14 mi
12:00 AM80 °FOvercast.2 mph59%30.05 "Hg17 mi
11:00 PM
Sat, Jul 4
78 °FClear.1 mph68%30.05 "Hg17 mi
Weather by CustomWeather, © 2015

See weather overviewHow to use our weather pages